Flag for U.S.A. Weather past 2 weeks in Anchorage, Alaska, U.S.A.

Now
41 °F

Clear.


Feels Like: 41 °F
Forecast: 36 / 52 °F
Wind: No wind

Location: Lake Hood Seaplane


UV Index: 0 (Low)

Visibility: 10 mi


Pressure: 29.47 "Hg

Humidity: 47%

Dew point: 22 °F

Location of AnchorageLocation

Historic Weather in Anchorage

°F

Anchorage temperature yesterday

Maximum temperature yesterday: 52 °F (at 3:53 PM)
Minimum temperature yesterday: 31 °F (at 6:53 AM)
Average temperature yesterday: 43 °F

Past Weeks' High & Low Weather Summary

 TemperatureHumidityPressure
High52 °F (Apr 19, 3:53 PM)93% (Apr 7, 9:58 AM)30.28 "Hg (Apr 7, 9:58 AM)
Low17 °F (Apr 10, 4:53 AM)31% (Apr 9, 7:53 PM)29.23 "Hg (Apr 7, 5:53 PM)
Average35 °F61%29.73 "Hg
* Reported Apr 4 11:53 PM — Apr 19 11:53 PM, Anchorage, Weather by CustomWeather, © 2014

Note: Actual official high and low records may vary slightly from our data, if they occured in-between our weather recording intervals... More about our weather records

Advertising

Historic Weather Conditions — Data for Previous 24 hours

 ConditionsComfort  
Time TempWeatherWind HumidityBarometerVisibility
11:53 PM
Apr 19
44 °FClear.6 mph45%29.46 "Hg10 mi
10:53 PM43 °FClear.5 mph47%29.46 "Hg10 mi
9:53 PM46 °FSunny.No wind40%29.45 "Hg10 mi
8:53 PM49 °FSunny.3 mph38%29.45 "Hg10 mi
7:53 PM50 °FSunny.5 mph38%29.44 "Hg10 mi
6:53 PM51 °FSunny.5 mph38%29.45 "Hg10 mi
5:53 PM52 °FSunny.5 mph35%29.46 "Hg10 mi
4:53 PM52 °FSunny.6 mph37%29.47 "Hg10 mi
3:53 PM52 °FSunny.9 mph34%29.49 "Hg10 mi
2:53 PM51 °FSunny.9 mph38%29.50 "Hg10 mi
1:53 PM48 °FSunny.5 mph46%29.51 "Hg10 mi
12:53 PM46 °FSunny.9 mph44%29.53 "Hg10 mi
11:53 AM42 °FSunny.9 mph55%29.54 "Hg10 mi
10:53 AM41 °FSunny.8 mph53%29.55 "Hg10 mi
9:53 AM37 °FSunny.5 mph70%29.57 "Hg10 mi
8:53 AM36 °FSunny.3 mph73%29.59 "Hg10 mi
7:53 AM33 °FSunny.5 mph78%29.60 "Hg10 mi
6:53 AM31 °FClear.No wind82%29.61 "Hg10 mi
5:53 AM34 °FPassing clouds.No wind76%29.62 "Hg10 mi
4:53 AM34 °FOvercast.3 mph76%29.63 "Hg10 mi
3:53 AM36 °FOvercast.No wind73%29.64 "Hg10 mi
2:53 AM37 °FOvercast.3 mph67%29.65 "Hg10 mi
1:53 AM38 °FOvercast.No wind63%29.65 "Hg10 mi
Weather by CustomWeather, © 2014

See weather overview